Theta_e
320 320 319 318 317 318 317 317 317 317 317 314 313 312 309 303 300 299 300 300 299 298 298 298 298 298 299 299 298 297 297 298 297 297 298 301 303 305 312 315 318 320 320 321 321 321 321 321 320 320 320 320 320 320 320 321 321 320 319 319 320 319 318 318 318 318 319 319 319 320 320 320 320 321 321 322 322 323 324 326 326 327 328 328 329
319 318 319 316 316 317 317 316 317 316 315 314 311 309 303 299 298 299 299 298 298 297 297 296 296 297 298 297 297 298 297 296 297 297 297 300 302 303 310 313 317 320 319 320 320 320 320 320 320 320 319 320 319 319 319 321 320 319 319 317 319 318 318 317 317 317 317 317 318 318 318 319 319 319 320 321 321 321 322 322 322 324 325 326 326
319 318 317 315 316 316 316 316 316 315 314 312 309 305 300 298 299 297 297 297 296 296 296 297 296 297 297 296 296 296 296 296 296 296 297 298 302 303 304 310 314 317 319 319 320 319 319 319 319 319 319 318 318 318 320 320 321 319 317 316 317 318 317 316 316 316 316 316 317 317 318 318 318 318 319 319 320 320 320 320 321 321 322 322 323
319 318 316 315 315 315 315 315 315 312 312 308 306 302 299 299 298 297 297 297 296 295 297 295 295 296 296 296 295 295 295 295 296 296 298 297 300 303 304 305 310 313 315 319 320 319 320 320 320 318 318 318 317 318 319 318 318 317 316 316 316 317 316 315 315 315 316 316 316 316 317 317 317 317 317 317 318 319 319 319 320 320 320 320 321
318 317 315 315 314 314 314 313 313 310 309 305 303 300 298 298 299 298 297 296 296 295 297 295 295 295 296 294 295 295 295 295 296 296 297 297 297 300 304 302 302 307 310 313 316 318 319 319 319 318 317 317 317 317 317 317 317 316 315 315 315 316 316 315 314 314 315 315 315 315 315 315 316 316 316 316 317 317 317 317 318 319 319 320 320
318 316 315 314 313 314 313 311 309 307 306 303 301 298 297 297 297 296 298 296 295 295 293 294 294 293 294 294 294 294 293 294 295 296 296 296 296 299 302 303 301 301 302 307 310 314 317 317 318 318 318 316 316 316 316 316 316 315 315 314 314 314 315 313 314 314 314 314 314 314 314 314 315 315 315 315 316 316 316 317 317 317 318 318 318
317 316 314 313 312 312 311 310 308 306 304 301 299 298 298 297 297 296 295 294 294 295 294 294 293 294 294 293 293 293 293 295 295 295 295 295 296 297 298 302 301 302 301 299 302 306 311 314 315 316 318 318 317 316 315 315 315 315 315 314 314 314 313 313 313 313 313 313 313 312 312 313 314 314 314 314 314 315 315 315 316 316 316 317 317
316 315 313 311 311 311 310 309 307 304 302 300 299 297 297 297 296 295 294 293 294 293 293 293 293 294 292 292 293 293 293 294 294 294 295 295 295 297 296 296 298 299 301 297 297 301 307 309 311 313 314 315 317 316 315 315 314 314 314 313 314 313 313 313 312 312 312 311 311 311 312 312 313 312 313 313 313 313 314 314 314 315 315 315 315
316 314 313 310 309 309 309 308 306 303 301 300 298 296 296 297 294 294 293 292 293 291 292 294 294 294 292 293 292 292 293 294 293 293 296 294 294 295 295 292 293 299 294 295 296 297 302 305 306 307 309 312 314 315 315 314 314 314 313 313 313 312 312 312 312 311 310 310 310 311 311 311 311 311 312 312 312 312 313 313 313 313 313 313 313
316 313 311 310 308 308 307 307 304 302 300 299 298 296 295 295 293 293 293 293 292 292 292 294 295 294 293 293 292 292 292 293 293 296 293 294 294 294 293 293 293 293 292 293 294 294 295 300 303 303 304 308 312 314 315 315 317 314 313 313 312 312 311 311 311 310 309 310 310 310 310 310 310 311 311 311 311 310 310 310 311 311 312 312 313
315 312 310 308 306 306 306 305 303 301 300 298 297 295 295 294 293 293 293 294 293 292 293 294 294 294 293 292 292 292 292 292 292 291 292 293 294 295 295 293 293 292 291 291 291 292 292 293 293 291 294 303 307 310 312 313 314 316 314 312 312 311 311 310 309 309 309 309 309 308 309 309 309 309 309 308 308 309 309 309 310 310 311 312 312
313 311 309 308 305 304 304 304 302 301 299 297 296 294 295 294 292 293 293 293 294 293 293 293 292 291 291 291 291 291 291 291 291 291 291 293 293 293 292 292 292 292 291 291 291 291 291 291 292 291 292 297 301 304 307 309 310 314 316 313 312 311 310 309 309 308 308 308 308 308 308 308 308 307 307 308 308 308 309 309 310 310 311 311 312
310 309 309 306 305 302 302 301 301 300 299 298 297 296 295 295 294 293 292 292 292 292 293 293 291 288 289 289 290 291 291 291 290 291 291 292 292 291 291 292 291 291 290 290 290 290 290 290 290 290 289 290 294 300 303 304 305 310 314 314 312 311 311 310 309 308 306 307 307 306 306 306 306 307 307 307 307 308 308 308 309 309 310 310 311
309 309 308 306 304 301 300 300 299 299 299 297 296 295 294 294 294 291 292 292 291 292 293 291 288 287 286 287 288 288 289 289 289 290 291 292 291 292 291 291 291 291 291 291 290 290 290 289 289 290 290 290 290 292 295 294 297 305 310 314 315 313 311 311 310 308 306 306 306 306 305 305 306 306 306 306 307 307 308 308 308 308 309 309 309
308 308 308 307 304 301 300 299 299 298 297 296 296 294 295 294 293 293 291 291 290 293 293 292 287 287 287 286 284 285 287 286 288 290 291 291 290 290 291 290 291 290 290 290 290 289 289 289 289 289 289 289 289 290 292 293 294 299 303 306 311 312 311 310 309 308 307 306 305 305 305 305 305 306 306 306 306 306 307 307 307 308 308 309 309
305 305 306 306 305 303 300 299 299 297 297 296 295 295 294 294 294 292 292 290 290 292 293 291 289 289 284 285 284 284 283 284 285 287 289 290 290 290 291 290 290 290 289 289 289 289 290 290 289 290 289 289 289 291 292 290 294 295 295 299 304 310 311 310 309 308 307 306 305 305 304 305 305 305 305 305 305 306 306 306 307 307 307 308 308
304 304 304 305 304 303 300 298 298 297 297 296 295 295 294 295 294 293 292 292 290 290 292 291 290 292 289 285 284 284 283 284 285 285 287 287 288 289 290 290 290 289 288 288 288 288 289 289 289 289 289 289 289 290 292 290 291 293 292 294 299 304 308 309 308 307 306 305 305 304 305 304 304 304 304 304 305 305 306 306 306 307 307 307 308
302 303 303 302 303 303 301 299 297 297 296 296 295 294 294 294 294 293 292 291 291 290 290 291 290 291 290 288 287 285 284 285 285 282 286 286 287 288 288 289 289 289 288 288 288 288 289 289 289 289 289 289 289 291 291 291 292 291 290 293 300 302 303 305 306 306 305 305 305 305 305 304 303 303 303 304 304 304 305 305 305 305 306 306 307
301 300 301 301 301 301 301 300 298 297 296 295 294 294 295 294 294 293 292 292 289 289 290 290 290 290 292 293 291 289 289 286 283 281 280 283 286 286 287 288 288 288 288 287 288 288 288 288 288 288 288 289 289 290 291 292 294 293 297 298 300 300 301 301 303 304 305 304 304 304 304 304 303 303 302 302 303 304 304 304 304 304 304 305 305
300 300 299 299 300 300 300 300 298 297 296 295 295 294 294 295 294 294 292 292 291 290 289 290 289 289 290 291 291 291 291 290 289 286 283 281 282 285 286 287 287 287 287 287 288 288 287 287 288 288 288 288 288 289 290 290 291 292 294 299 299 299 299 299 299 300 301 302 304 303 304 304 303 303 302 302 303 303 303 303 303 304 304 305 305
299 299 298 299 298 298 297 298 298 297 296 296 294 294 293 293 293 293 292 292 291 290 290 289 289 289 288 288 290 290 289 288 289 290 282 281 281 282 283 285 286 286 287 287 288 288 288 287 288 288 288 288 288 288 290 290 289 290 294 298 299 299 299 298 297 298 297 298 300 301 303 303 303 302 302 302 302 303 303 303 303 303 304 304 304
297 297 297 298 297 296 297 296 297 296 295 294 293 293 293 293 294 293 293 292 291 291 291 290 290 289 289 290 290 287 287 286 286 287 287 285 283 282 283 283 283 285 287 287 287 288 288 287 288 287 287 287 288 288 289 290 289 290 293 297 297 298 298 296 296 296 296 296 297 298 299 301 301 301 301 302 302 303 303 303 303 303 303 304 304
296 295 296 296 296 296 295 296 296 295 295 294 293 293 293 293 294 293 292 292 291 291 290 290 290 289 288 288 290 290 290 288 287 286 288 286 283 283 284 285 285 283 285 288 287 288 288 287 287 287 287 287 288 287 288 290 291 291 294 296 296 296 296 296 296 296 296 296 296 296 296 297 298 299 300 301 302 303 303 303 303 302 303 303 303
295 294 294 295 295 295 294 294 295 294 295 295 294 293 293 292 292 293 292 292 292 291 290 290 289 289 289 289 289 290 290 289 289 289 288 287 288 284 284 284 284 285 285 286 287 287 287 287 287 287 287 287 288 288 288 290 290 293 292 294 295 295 296 297 297 296 296 296 296 296 296 296 296 296 298 300 301 302 302 302 302 302 302 302 302
293 293 293 293 294 294 294 294 294 295 294 294 294 293 292 292 292 292 292 291 291 291 290 290 290 289 289 289 289 289 289 290 289 288 288 288 287 282 285 285 283 284 284 285 284 286 287 287 286 286 287 286 288 288 287 288 289 292 291 292 294 294 295 296 295 295 295 295 295 295 295 295 295 295 297 298 299 301 302 302 301 302 302 302 301
294 293 294 293 293 294 294 294 294 293 293 294 293 292 292 291 291 290 290 291 291 291 290 289 289 290 289 288 288 289 289 289 289 288 287 286 284 285 284 285 283 283 282 283 283 284 284 286 286 286 286 286 287 287 288 287 288 292 290 289 292 293 294 295 295 294 295 294 294 294 294 293 294 295 295 298 299 299 300 301 302 301 301 301 301
293 294 294 293 293 293 293 293 293 293 293 292 294 293 292 292 291 290 290 290 290 290 289 289 289 288 288 288 288 288 289 289 289 289 289 288 288 286 285 285 282 282 281 281 281 284 283 284 286 285 286 286 286 287 287 287 288 291 289 287 287 292 292 293 294 294 294 294 293 293 293 292 293 294 294 296 298 298 299 300 301 301 301 300 300
293 293 293 293 293 292 292 292 292 292 292 292 292 292 291 290 290 289 289 290 289 288 288 288 288 287 287 288 287 287 288 288 289 290 289 289 288 287 287 286 285 281 279 280 280 282 283 283 283 285 286 286 286 287 288 288 287 291 288 285 285 287 291 292 294 294 294 293 293 293 292 292 292 293 294 294 295 296 297 298 298 298 297 296 295
292 292 292 292 293 292 291 291 292 292 291 291 291 289 289 289 289 288 288 287 287 287 287 287 287 287 287 286 287 288 287 286 287 288 288 288 288 288 288 288 287 285 280 279 280 280 282 284 282 284 286 286 286 286 287 287 288 289 286 284 283 283 289 292 293 294 294 294 293 292 292 292 292 292 293 293 294 294 295 295 295 295 295 295 295
291 291 291 290 291 291 291 290 289 289 289 289 289 289 288 289 288 288 288 287 287 287 287 287 287 286 286 286 286 286 286 286 286 285 286 288 286 288 288 288 288 287 283 282 282 281 280 283 283 282 284 285 286 286 287 286 289 288 286 284 283 283 289 290 292 293 293 294 293 293 293 292 292 292 292 293 293 294 294 294 295 295 295 295 295
288 288 288 288 288 288 288 288 289 288 287 288 288 288 287 288 287 288 286 286 286 286 286 286 287 286 286 286 286 286 286 286 285 285 285 286 286 286 287 287 286 288 285 283 282 281 284 282 283 283 284 284 286 286 286 285 288 287 284 283 283 286 288 289 290 291 292 293 292 293 293 293 292 291 292 292 293 293 294 294 294 294 294 294 295
286 286 286 286 287 286 287 287 287 287 287 287 288 288 288 288 288 288 287 286 286 286 286 286 287 286 286 286 286 285 285 285 285 285 285 285 285 285 285 286 285 285 285 283 284 283 283 284 284 283 284 284 284 284 284 284 286 287 283 283 283 287 286 285 289 290 291 292 292 292 293 292 292 292 292 292 292 293 293 293 294 294 293 294 294
286 286 285 286 286 286 286 287 286 287 286 287 287 286 287 287 287 286 286 286 286 286 286 286 285 285 285 286 286 285 284 285 286 286 285 285 284 284 285 285 285 284 284 283 283 282 280 281 282 282 283 284 283 284 283 282 283 284 284 282 283 283 283 282 284 288 289 290 291 291 292 292 292 292 292 292 292 292 293 293 293 293 293 293 293
286 286 286 285 285 286 286 286 287 288 288 287 286 286 287 286 286 287 287 286 286 285 285 285 285 286 286 285 285 285 284 285 285 285 285 284 284 284 284 284 284 284 284 284 283 282 281 281 280 280 282 284 282 283 283 281 282 282 282 282 282 281 280 279 279 282 287 288 290 290 291 291 291 292 292 292 292 292 293 293 292 292 292 292 292
285 285 285 285 285 285 285 285 285 286 287 287 287 287 287 286 286 286 286 285 285 285 285 285 285 285 285 285 285 285 286 285 285 285 284 284 283 283 284 284 284 285 283 284 283 282 281 280 280 281 281 282 282 282 282 283 282 282 281 281 281 281 281 279 279 280 287 289 290 290 290 291 291 291 292 292 292 292 292 292 292 292 292 292 292
284 285 285 285 285 285 285 285 285 285 285 285 285 286 286 286 286 286 285 285 285 285 285 285 284 284 284 285 285 285 285 285 285 284 284 284 284 284 284 284 284 285 284 283 284 285 282 280 280 280 281 281 281 281 282 281 280 280 280 280 279 280 280 280 279 280 285 289 289 289 290 290 290 291 291 291 292 292 292 292 292 291 291 291 291
283 283 284 284 285 285 285 285 285 285 285 284 284 284 285 285 286 286 286 285 285 285 285 285 286 284 284 284 284 284 284 284 285 284 284 283 284 284 284 284 284 284 284 284 284 284 281 281 280 280 281 281 282 281 282 280 279 279 279 279 279 279 279 279 280 281 285 288 289 289 289 289 289 290 291 291 292 292 292 291 291 291 290 290 290
282 282 282 283 283 284 284 284 284 284 284 284 284 284 284 284 285 285 285 285 285 285 285 285 285 285 285 285 284 284 284 284 284 284 284 284 284 284 284 284 283 283 283 283 283 283 283 281 280 279 279 280 279 279 281 281 279 278 278 278 278 278 278 278 279 281 282 283 283 285 287 288 289 289 290 290 291 292 292 291 291 290 290 289 289
281 281 281 281 282 283 283 284 284 284 284 284 284 284 284 284 284 284 284 285 285 285 285 285 285 284 285 284 284 284 284 284 284 284 284 284 284 284 284 283 283 283 283 283 282 282 283 282 279 280 280 280 280 279 280 281 280 279 278 277 277 279 279 279 279 280 281 281 284 286 285 285 286 286 288 290 290 291 291 291 290 290 289 289 289
281 280 280 281 281 281 282 282 283 284 284 284 284 284 284 284 284 284 284 284 284 284 284 285 285 285 285 285 285 285 285 285 285 284 283 283 283 283 284 283 283 283 283 283 282 282 282 282 280 278 279 279 279 278 280 280 278 277 278 278 277 278 278 279 280 279 280 280 280 281 285 285 285 286 287 288 289 290 290 290 289 289 288 288 288
282 281 281 281 280 280 281 281 281 282 283 284 284 284 284 284 284 283 284 284 284 284 284 284 284 285 285 285 285 285 285 286 286 287 286 286 285 284 284 283 283 283 283 283 283 282 282 282 281 279 278 278 278 278 277 278 278 278 279 279 279 279 279 278 279 280 280 279 279 279 280 281 280 280 281 281 283 286 287 288 287 287 287 288 288
281 281 281 280 279 280 280 280 280 281 282 283 285 287 288 286 284 284 284 284 283 283 283 283 284 284 285 285 286 286 286 286 286 287 288 288 288 286 285 283 283 283 282 282 283 283 282 282 282 281 277 278 278 278 278 278 279 280 279 278 277 278 278 278 278 279 281 280 278 278 279 281 280 279 279 279 281 283 282 283 283 284 285 286 287
279 280 281 280 280 280 279 279 279 280 281 282 285 288 288 289 287 284 284 284 283 283 283 283 283 284 284 285 285 285 285 285 286 287 288 288 288 289 289 288 286 284 282 282 282 283 282 282 282 282 280 279 279 279 278 278 279 279 279 279 278 278 277 276 275 278 280 280 278 277 277 280 280 278 278 279 280 280 281 281 284 285 285 286 286
278 279 279 280 280 280 280 279 279 280 280 284 286 286 287 288 288 285 283 283 283 283 283 283 283 284 284 284 284 285 285 285 285 284 285 287 288 288 288 289 289 289 288 284 283 282 282 282 282 282 282 281 280 279 278 278 278 278 279 279 279 278 278 277 278 276 279 281 278 278 277 279 279 278 278 279 280 280 280 282 285 285 285 286 286
277 277 278 279 279 279 278 278 279 279 279 283 285 285 286 287 287 287 283 283 282 282 283 283 283 283 283 284 284 284 285 285 285 285 285 284 286 287 288 288 288 289 289 290 288 285 284 283 282 282 282 282 281 279 280 279 280 278 279 278 279 279 279 279 279 278 278 281 279 278 276 278 279 278 277 279 279 280 281 284 285 285 286 287 286
276 276 277 278 278 278 278 278 278 279 279 282 284 284 285 286 287 286 283 282 282 282 282 282 283 283 283 283 283 283 284 284 285 285 285 284 284 284 284 284 285 286 287 289 288 288 286 284 284 283 284 284 282 282 281 282 279 278 278 278 279 279 279 279 281 280 280 281 278 278 276 277 279 278 277 278 279 279 279 282 285 285 286 286 286
275 276 276 277 278 278 278 277 277 277 278 282 283 284 284 285 286 286 283 282 282 281 282 282 282 283 283 284 283 283 283 284 284 285 284 284 284 283 283 283 283 284 284 285 285 286 286 286 284 284 284 285 284 284 282 282 281 281 281 281 281 280 281 280 278 279 279 280 279 279 274 277 278 277 277 277 278 278 278 282 284 285 286 286 286
275 275 276 276 276 276 277 276 276 276 277 281 282 283 284 284 285 283 282 281 281 280 280 281 281 282 282 283 283 283 283 283 285 287 287 285 283 283 282 282 282 283 284 285 287 287 286 286 285 285 285 285 287 284 283 282 282 282 282 281 281 280 278 277 276 276 275 279 279 279 275 275 277 277 276 277 277 276 277 278 283 284 285 285 285
274 274 274 274 275 275 275 275 275 275 275 278 281 282 283 284 283 281 281 280 280 279 280 280 281 281 282 282 282 282 283 283 285 287 288 287 284 283 282 282 282 282 282 284 286 288 288 288 289 289 289 290 289 291 289 288 284 283 281 280 279 279 277 276 275 274 274 277 277 279 277 274 276 276 275 275 276 276 276 276 278 283 284 284 284
272 273 273 273 273 274 274 273 274 273 274 277 279 280 281 282 282 280 280 279 278 278 279 279 280 280 281 283 283 282 282 282 286 287 288 287 284 283 282 282 281 281 282 283 284 284 287 287 288 288 288 289 289 289 290 289 288 286 280 278 279 279 277 278 275 275 275 276 276 278 275 274 276 275 274 274 275 275 275 276 277 278 282 282 283
272 272 272 272 272 273 273 272 274 273 272 274 278 279 280 281 280 279 279 278 278 278 278 278 279 280 280 282 284 284 283 284 287 287 288 287 284 284 283 282 281 281 282 282 282 282 282 283 283 284 284 286 285 285 285 288 288 286 282 281 281 279 278 278 277 275 273 274 277 278 274 273 273 274 274 272 269 272 275 276 277 276 277 277 279
Wind_Speed
7 7 7 6 6 8 8 7 7 7 8 6 7 7 7 7 7 6 5 5 4 4 4 4 4 4 5 4 4 4 4 4 3 2 3 5 3 4 6 7 8 7 3 2 1 2 3 2 2 2 2 2 3 1 1 4 6 5 3 3 6 5 5 6 6 7 6 6 6 6 7 8 7 7 7 8 8 8 9 10 10 11 11 12 13
7 7 8 7 6 7 8 8 8 7 8 8 6 8 7 7 6 5 6 5 5 4 4 4 3 4 5 4 4 5 4 4 3 2 3 5 4 3 6 7 8 8 5 4 2 1 1 1 2 4 3 4 2 2 2 4 7 6 4 2 5 5 5 6 6 6 5 5 5 6 7 7 8 7 8 8 8 8 8 8 9 10 11 12 12
7 7 7 7 6 7 7 7 7 7 8 8 6 7 7 7 7 7 7 6 6 5 5 4 4 4 4 4 3 4 4 4 4 2 3 4 5 3 3 7 8 10 10 7 6 3 2 1 2 1 2 3 3 3 4 5 9 5 3 2 3 5 5 6 5 5 5 5 4 6 7 7 7 7 7 8 8 8 8 8 8 9 9 10 11
7 7 7 7 7 7 7 8 8 7 8 7 7 7 7 6 6 6 5 5 6 6 5 6 4 4 4 4 3 4 4 4 4 3 3 4 5 4 5 4 8 10 11 12 10 8 7 8 6 2 2 2 2 2 3 4 4 3 2 2 2 5 4 4 3 4 4 5 5 5 6 6 6 7 7 7 8 8 8 8 9 9 9 9 10
7 8 7 7 7 7 7 7 7 7 7 7 7 6 6 7 7 5 6 5 6 5 4 5 6 5 5 4 3 3 4 4 4 4 2 1 3 6 5 4 4 7 10 11 12 11 9 9 8 5 2 2 2 2 2 1 2 4 2 2 1 3 4 2 3 4 4 4 5 5 5 5 5 6 6 6 7 7 8 8 8 9 9 9 10
7 7 7 7 7 7 7 7 7 7 7 7 8 7 7 7 7 7 7 7 7 6 6 6 5 5 4 3 4 4 3 3 4 4 2 1 1 4 6 5 5 5 5 9 11 11 11 9 9 10 8 3 1 1 1 2 2 2 3 1 1 1 3 1 2 3 4 4 4 4 3 4 5 5 5 6 6 7 7 8 8 8 8 9 10
7 8 8 8 8 7 7 7 7 7 7 7 8 7 8 8 8 8 6 7 6 6 5 6 6 6 4 3 4 4 3 4 4 3 1 1 1 2 3 4 6 5 5 5 6 9 10 10 10 10 10 10 6 1 1 2 2 1 2 3 2 2 2 2 2 3 4 4 4 3 2 4 4 5 5 5 6 6 7 8 8 8 8 9 9
7 8 8 7 8 8 7 7 7 7 7 7 7 8 7 7 6 7 8 6 7 6 5 6 5 5 5 4 5 4 4 5 4 3 1 1 1 1 1 3 3 4 5 5 5 5 8 9 9 10 10 9 9 6 2 1 1 2 1 0 2 1 2 2 2 3 3 3 3 3 3 3 4 4 4 5 5 6 6 6 7 7 8 8 8
6 7 8 7 7 7 7 8 7 8 8 7 7 7 8 7 7 7 7 7 7 7 5 7 6 5 5 5 4 4 5 5 4 4 2 2 3 2 3 3 3 4 6 5 5 5 5 8 8 9 8 8 8 8 6 3 1 1 1 2 2 2 2 3 3 2 2 2 2 3 3 3 3 4 4 4 5 5 6 6 6 7 7 7 7
7 6 7 7 6 7 7 8 8 8 8 7 7 7 7 8 8 6 8 7 7 8 7 7 6 6 5 5 4 3 3 5 4 4 3 2 4 3 4 4 2 1 4 5 5 4 3 5 7 7 6 6 6 6 6 6 8 3 4 4 3 2 3 2 3 2 2 3 3 2 2 3 3 3 3 4 4 4 4 4 5 4 4 5 6
6 6 7 7 6 6 7 7 8 8 8 8 7 7 7 7 8 7 6 7 8 8 8 7 6 5 5 4 4 3 3 3 4 4 4 4 4 4 4 5 3 3 4 4 5 5 4 3 3 3 3 5 5 4 5 6 5 5 2 6 5 4 3 2 3 3 2 2 1 1 1 1 2 2 2 2 1 2 2 2 3 4 5 6 6
5 5 6 7 6 6 7 6 8 8 8 9 9 8 10 9 9 9 8 5 6 7 7 8 6 6 4 3 3 2 2 2 3 4 4 5 5 4 4 4 5 4 3 3 4 4 4 3 4 4 3 3 3 3 5 6 7 5 5 7 7 7 5 4 3 1 0 1 1 1 1 0 1 0 1 1 2 2 2 3 4 4 5 5 6
4 5 6 6 6 5 5 6 7 8 8 10 9 9 8 8 7 6 9 7 5 6 7 9 9 4 3 3 1 1 2 1 4 4 4 6 6 6 4 5 4 5 4 4 4 4 3 3 4 5 4 3 2 2 2 6 6 7 6 3 10 9 9 8 4 3 2 2 2 2 1 2 1 0 0 1 1 1 1 2 3 3 4 5 5
6 6 6 6 6 6 6 7 7 7 7 6 6 6 6 6 6 5 4 7 6 8 9 10 2 7 6 2 0 1 2 3 4 4 5 5 6 7 6 6 6 6 5 5 4 4 4 4 4 5 5 4 4 3 2 3 3 6 7 8 6 13 10 10 9 6 4 3 2 2 2 2 2 1 1 1 1 1 2 3 3 3 4 4 4
5 6 7 6 7 7 7 7 7 7 7 7 7 8 9 10 9 10 7 4 3 5 10 10 7 5 3 5 2 2 2 3 4 5 6 5 6 7 7 7 7 7 6 6 5 5 4 4 4 4 4 5 5 3 4 3 3 5 6 7 11 6 10 9 8 8 7 5 3 2 2 2 3 2 0 1 1 1 2 2 3 3 3 4 4
4 4 5 5 7 7 7 7 8 8 9 8 8 9 8 8 9 9 9 8 5 8 9 8 6 11 4 6 4 4 2 8 7 4 6 6 6 6 6 6 7 6 6 7 6 6 5 5 5 4 4 4 4 4 5 3 3 5 6 8 7 7 11 9 10 7 6 5 4 3 3 3 2 1 1 1 2 2 1 2 3 3 3 3 3
4 4 4 5 5 5 6 6 7 7 7 8 9 10 10 10 11 10 11 12 10 6 7 8 8 10 8 5 1 2 6 3 6 2 4 4 5 5 5 5 7 7 7 6 6 7 6 5 5 4 4 4 4 5 5 4 3 2 3 5 7 10 4 10 9 7 5 5 5 5 4 3 3 1 1 1 1 1 1 2 2 3 3 3 3
4 4 5 4 5 5 5 5 6 6 7 7 7 7 8 9 11 11 11 9 10 7 8 8 8 9 5 4 7 7 5 3 5 4 0 3 4 4 5 5 5 6 6 6 7 7 7 7 6 6 5 4 4 6 6 6 4 4 3 3 6 8 9 6 8 7 7 6 5 6 6 5 3 2 1 2 1 1 1 1 2 2 2 2 2
3 4 4 5 5 5 5 5 5 6 6 6 7 8 8 10 8 9 10 10 7 10 12 11 7 7 7 7 1 1 4 8 6 5 1 3 4 5 5 5 5 6 7 6 7 7 6 6 6 6 6 5 5 6 6 6 7 7 7 8 8 8 8 7 6 7 7 7 6 4 4 4 4 3 2 2 2 2 0 0 1 1 1 1 2
3 4 4 4 5 5 5 5 5 5 6 7 8 6 6 6 8 9 9 9 10 11 10 9 14 11 10 8 4 1 1 0 3 9 6 5 6 3 4 6 5 6 7 7 7 8 7 7 7 6 6 6 5 6 6 5 5 6 6 10 10 10 10 9 7 5 5 5 6 6 6 6 5 4 4 3 4 2 1 1 1 0 0 1 2
3 3 4 4 4 5 5 5 5 5 6 5 6 6 7 7 8 9 10 9 9 8 8 10 10 10 9 7 4 5 3 2 0 1 4 4 3 7 6 2 4 6 7 7 6 7 8 8 7 7 6 6 6 5 6 6 6 6 6 11 11 11 11 11 9 8 6 4 5 4 5 5 5 4 4 4 4 3 2 1 1 1 0 0 1
3 3 3 3 3 3 4 5 5 6 5 5 5 6 6 6 8 9 10 11 8 9 10 8 10 9 10 9 9 4 3 3 4 4 2 4 7 8 8 10 9 10 8 9 8 8 7 7 7 7 7 7 6 6 6 7 6 6 8 13 12 12 12 11 11 10 9 7 5 4 3 3 5 5 3 4 4 4 3 3 2 1 1 1 1
3 3 3 3 3 3 4 5 5 4 5 5 5 6 7 7 7 8 10 11 10 9 8 6 8 10 9 8 10 11 13 11 10 8 7 5 3 4 5 9 12 5 8 10 8 8 8 8 9 8 8 8 7 7 7 7 8 8 12 15 14 13 13 13 13 12 11 10 9 7 5 3 3 3 4 5 6 5 4 4 3 3 2 2 2
2 3 3 3 4 4 4 4 4 4 5 6 5 5 6 6 6 6 7 9 9 10 9 10 8 9 11 9 9 9 9 8 8 9 10 8 8 7 8 5 3 6 2 7 6 7 9 10 9 9 9 8 8 8 7 8 9 15 12 14 15 15 15 15 14 13 13 12 10 9 8 7 6 5 5 6 6 6 5 5 5 4 3 3 2
3 2 4 4 4 4 4 4 5 5 5 4 5 5 5 6 6 6 7 8 9 10 10 11 10 9 10 10 9 9 10 8 6 7 6 6 6 6 7 7 8 6 4 6 7 7 7 8 8 8 9 8 8 8 8 8 8 15 13 12 18 16 15 15 15 14 13 12 11 10 9 8 8 7 6 7 7 6 6 5 5 5 4 3 3
6 5 4 4 4 5 5 5 5 5 5 5 5 5 5 6 6 6 6 7 7 10 11 9 9 10 7 8 10 9 10 8 9 7 8 7 7 8 6 4 2 5 1 5 2 4 5 7 7 8 8 8 9 9 9 8 8 17 17 11 14 17 16 15 15 15 14 13 12 10 9 8 7 8 7 7 7 6 6 6 6 6 5 5 4
6 6 6 5 3 4 4 4 4 4 5 5 5 5 5 5 6 6 6 6 7 8 9 9 10 9 7 7 8 9 9 9 9 10 8 10 9 9 9 7 1 2 3 2 2 8 4 4 7 8 9 9 9 9 10 8 9 16 17 11 8 15 16 16 15 15 14 14 12 11 10 9 8 8 8 7 8 7 7 7 6 6 6 5 4
6 5 6 5 5 3 3 4 4 4 4 5 5 5 5 6 6 6 7 4 6 7 8 7 10 9 8 7 6 7 6 8 8 9 9 8 8 7 9 10 10 6 2 5 5 8 4 5 4 8 9 10 9 9 10 10 9 17 16 9 9 9 16 16 16 15 15 14 13 12 11 10 9 9 8 8 7 7 7 7 7 6 4 4 4
6 5 6 5 5 4 4 4 4 4 5 5 5 5 5 5 6 6 7 6 6 7 7 8 8 8 9 8 9 7 6 5 6 7 8 8 8 8 9 12 10 10 7 7 9 9 7 9 8 10 11 9 9 8 10 9 11 15 11 10 10 8 13 18 16 15 15 15 13 13 12 11 10 10 9 9 9 8 8 8 7 6 6 7 7
6 6 6 7 6 6 5 5 4 4 4 5 5 5 5 5 5 6 6 5 6 6 6 7 8 7 8 8 8 8 6 6 7 5 6 8 8 8 8 8 10 13 9 10 10 9 6 7 7 6 9 11 10 9 9 9 11 16 10 10 10 9 16 19 17 16 16 15 14 14 14 13 12 11 10 10 10 10 10 10 10 9 9 9 9
8 7 7 7 7 6 5 5 5 5 5 5 5 5 5 5 5 6 5 5 6 6 6 5 6 6 8 9 8 9 6 8 8 7 6 6 6 5 7 7 8 10 10 9 8 6 9 10 10 6 10 12 10 9 8 7 10 14 10 9 9 12 18 15 18 17 16 15 15 14 14 14 13 13 12 11 11 11 11 11 10 10 10 10 9
6 6 7 6 7 7 6 6 5 5 5 5 5 5 5 5 6 7 6 5 6 7 7 6 5 6 7 8 8 8 7 7 9 8 8 7 6 7 7 6 6 6 7 8 11 8 9 10 10 10 11 12 11 11 10 6 8 16 9 9 10 13 12 9 17 18 16 15 15 15 14 14 14 14 13 13 13 13 12 12 11 11 11 10 10
6 7 6 7 7 7 7 7 6 5 5 5 5 4 5 6 6 6 6 6 6 7 6 7 6 6 7 8 8 7 5 8 9 8 8 8 7 7 7 7 8 7 7 8 8 6 1 1 6 8 9 10 9 11 11 9 8 10 10 8 9 9 8 9 8 14 16 15 15 15 15 14 14 14 14 14 14 14 13 13 12 12 11 11 10
8 8 8 6 5 6 6 7 7 7 7 5 5 4 5 6 6 5 6 7 7 7 6 7 7 7 6 8 8 7 7 9 9 9 8 7 7 8 8 8 9 9 7 7 8 7 8 1 3 3 7 10 11 10 14 13 11 9 11 9 7 8 8 8 8 8 17 16 16 16 16 15 15 14 14 14 14 14 14 14 13 12 11 10 9
8 8 8 9 9 8 7 6 6 6 6 6 6 5 5 5 6 6 6 6 7 7 7 8 7 7 7 7 8 6 6 9 9 8 7 8 7 9 10 8 10 10 7 8 7 8 8 7 6 8 9 10 12 13 13 11 10 11 11 10 10 7 7 8 8 6 15 17 17 16 16 16 15 15 14 15 15 15 15 15 13 12 10 9 9
8 8 8 8 8 9 9 9 9 7 7 6 6 5 6 6 6 7 7 7 7 7 8 7 7 7 8 7 7 7 8 10 10 7 7 7 8 8 9 8 9 11 8 7 9 10 7 9 8 10 10 11 8 5 8 6 10 10 11 8 4 7 6 7 8 7 11 19 18 17 17 17 16 16 16 15 15 16 16 15 13 12 10 9 9
6 6 7 6 7 7 7 7 8 8 8 7 6 6 6 5 6 7 7 7 7 7 8 8 7 7 7 8 7 6 8 10 10 8 8 9 9 9 10 9 9 8 6 8 10 8 7 10 8 6 7 8 6 7 11 12 8 7 6 9 9 8 6 6 5 6 10 18 17 18 17 18 17 18 17 16 16 16 16 15 13 12 11 10 9
8 8 7 7 6 7 7 7 7 7 7 7 7 6 6 6 6 6 6 6 7 7 7 7 7 7 8 8 7 7 8 10 10 8 9 11 10 10 11 10 8 7 8 9 8 9 10 9 8 8 6 9 6 7 12 12 12 10 8 8 5 6 8 8 8 7 6 6 6 9 13 15 18 19 17 16 17 16 15 14 14 12 11 10 10
5 7 7 8 8 7 8 8 8 8 7 7 7 7 7 6 6 6 7 7 7 7 6 6 6 6 7 7 7 8 10 10 10 9 8 9 9 11 11 10 9 8 10 10 9 10 11 10 6 9 10 9 9 11 10 11 10 11 13 11 10 8 9 11 9 7 6 7 8 12 10 9 11 10 14 17 17 17 16 15 14 13 11 11 11
5 6 6 6 8 7 8 8 8 8 7 7 7 7 7 7 7 7 7 7 7 7 7 7 7 7 7 7 7 8 9 10 10 9 8 9 8 9 9 8 8 10 11 9 9 10 11 11 9 9 8 10 8 2 4 9 9 7 9 11 14 14 13 11 11 11 9 8 8 7 9 10 12 14 16 16 18 17 17 14 15 13 12 11 11
6 6 6 6 6 7 7 8 8 7 8 8 6 7 7 8 7 7 8 8 8 8 8 8 7 7 7 7 7 8 9 12 15 13 12 11 9 10 9 6 8 10 9 9 9 10 10 11 10 6 8 9 11 11 12 14 17 18 13 12 12 9 8 8 9 8 9 10 8 7 7 8 8 8 7 7 9 14 13 14 9 12 12 12 12
7 7 7 6 5 6 8 8 7 7 8 7 9 14 13 9 8 8 8 8 8 8 9 9 9 8 8 8 8 12 14 15 15 16 17 18 19 14 9 7 9 9 10 10 10 11 11 11 13 10 9 12 13 14 15 15 11 6 11 13 11 9 8 8 5 7 8 10 9 9 9 8 8 7 7 8 6 8 6 6 5 5 9 13 13
8 8 8 8 8 7 7 7 8 8 8 7 13 15 17 19 11 8 8 9 8 9 9 9 10 9 8 9 8 10 12 13 13 16 18 19 18 19 19 17 14 11 10 12 12 11 11 12 12 11 13 15 14 13 13 11 11 13 13 13 12 10 12 13 12 5 9 11 10 9 9 9 9 10 8 8 8 7 7 7 10 13 14 14 15
7 6 8 9 9 8 8 9 9 9 9 9 16 18 19 20 16 10 8 8 8 8 9 10 9 9 9 9 8 8 9 10 9 9 13 17 18 19 19 20 21 21 19 14 13 11 12 13 13 14 13 15 14 12 11 10 12 10 9 11 13 14 13 12 11 10 9 15 12 10 10 7 9 8 8 9 8 8 8 10 14 14 15 16 16
7 9 11 10 9 9 8 10 11 10 10 11 16 18 20 21 21 16 9 9 9 9 9 10 10 10 9 9 9 9 8 13 12 11 10 11 14 18 19 20 21 22 22 23 21 16 11 14 14 15 16 14 11 10 12 12 10 14 13 12 13 12 12 13 13 9 7 16 11 9 9 9 11 10 9 8 8 8 9 13 17 17 17 18 17
9 11 12 12 12 12 10 10 10 10 12 12 18 20 21 22 21 18 10 11 10 10 10 10 10 10 10 10 10 10 9 9 9 11 11 10 10 9 10 12 12 16 20 23 23 24 20 15 14 17 16 12 12 10 10 12 15 15 14 14 12 12 12 15 12 8 6 13 16 12 7 9 10 10 10 8 7 7 7 11 17 17 18 19 17
10 11 11 13 12 12 12 12 11 12 12 17 21 22 22 23 23 19 11 10 10 10 11 10 10 11 11 11 11 11 11 10 10 11 10 9 9 10 10 11 12 12 12 13 15 15 15 14 16 17 15 12 12 10 10 14 17 15 15 16 16 16 14 3 4 3 6 9 9 8 12 7 8 9 9 8 7 7 6 11 18 18 19 18 17
9 9 11 11 13 14 14 13 12 14 14 21 22 21 22 23 25 14 11 11 11 11 11 11 11 10 10 11 11 12 12 11 12 18 16 11 9 11 13 12 12 11 12 14 17 17 15 14 15 16 14 12 12 10 10 13 12 10 7 2 2 3 6 6 9 4 7 8 11 10 4 7 9 11 8 6 7 7 7 7 15 19 18 17 16
11 12 13 12 12 13 14 14 13 14 15 19 24 24 23 24 19 12 11 11 11 11 12 12 12 11 11 11 11 11 12 12 13 17 19 18 12 13 13 13 12 12 13 13 14 19 22 22 23 23 22 14 18 12 14 19 15 12 9 9 13 12 11 10 8 6 8 8 8 10 6 6 9 8 6 7 8 8 8 8 6 14 17 16 16
13 13 13 14 14 14 14 15 14 13 15 19 26 26 27 27 22 15 12 12 12 12 13 13 11 11 12 18 16 13 13 13 15 18 19 16 13 14 14 14 14 14 14 12 8 10 18 21 23 24 25 21 18 16 16 17 19 16 15 17 13 10 12 13 13 10 5 7 11 9 7 6 7 7 6 3 4 2 5 5 6 7 13 13 16
14 14 14 14 15 14 13 14 15 16 16 19 27 29 29 27 21 13 12 11 13 13 13 14 12 11 11 14 20 18 15 15 19 19 21 17 13 13 14 13 14 16 16 12 9 9 10 11 13 14 15 17 15 14 13 19 21 18 17 16 11 14 16 14 9 7 6 10 10 11 10 6 11 7 9 6 4 2 3 6 6 6 6 6 7
Wind_Direction
163 164 162 174 166 164 168 178 171 165 169 188 171 166 177 164 167 180 153 142 143 164 162 165 155 137 125 134 114 105 100 100 91 68 74 113 102 55 30 18 7 6 10 333 187 182 212 196 233 104 124 126 74 22 238 124 92 80 61 88 78 65 61 62 56 50 38 47 55 66 63 61 61 66 68 71 69 65 65 63 63 59 58 54 48
160 159 164 180 175 167 167 175 171 164 166 189 179 161 167 159 161 160 153 153 156 188 150 168 141 123 127 134 128 136 124 116 131 133 104 114 110 91 49 30 25 23 35 23 20 356 290 206 191 161 196 159 139 111 217 169 117 86 65 30 83 70 60 58 55 51 44 50 61 62 64 61 60 58 62 65 64 62 64 62 59 60 57 57 53
160 161 164 176 180 172 172 170 169 171 168 178 164 157 158 160 162 163 164 158 170 170 147 142 123 99 116 118 124 102 104 112 97 92 105 107 124 116 73 49 41 36 38 53 45 36 18 272 198 109 227 223 164 172 189 163 125 123 96 33 88 85 59 57 47 53 57 61 61 68 64 62 58 61 61 59 59 58 61 63 64 61 61 57 55
161 164 166 175 180 175 173 168 173 164 164 158 156 154 157 159 157 160 161 153 153 161 152 141 139 138 116 111 100 111 113 113 111 91 80 107 128 137 117 82 56 49 42 43 51 52 49 47 37 40 309 273 111 118 274 279 172 133 149 127 110 99 84 66 65 69 67 63 60 68 66 59 58 57 61 65 63 58 60 60 61 61 60 60 59
168 166 166 174 175 173 172 169 164 157 154 150 148 151 150 151 162 155 155 141 137 165 147 143 134 139 132 147 114 99 116 114 115 102 125 169 152 148 134 115 90 61 51 47 40 48 58 53 44 33 26 17 132 196 210 36 91 93 118 152 171 132 109 115 85 71 74 78 73 67 55 63 64 63 59 61 61 60 59 57 60 59 58 59 58
162 167 165 169 177 176 172 168 159 154 148 148 155 157 155 154 164 151 159 145 151 160 143 135 133 133 124 132 119 137 121 110 128 133 146 180 163 130 150 145 124 103 77 55 46 44 57 61 59 51 37 33 54 166 192 123 95 129 87 85 122 63 96 109 102 83 83 71 69 62 66 65 61 61 64 58 56 54 55 55 59 59 60 57 57
164 164 172 170 174 174 174 171 158 154 152 161 156 160 154 162 160 154 154 145 147 159 151 147 140 137 136 135 122 120 107 110 102 122 135 174 99 139 147 156 134 132 120 97 56 44 51 61 62 57 52 42 34 17 172 145 88 66 195 177 152 82 60 50 45 87 73 72 71 73 78 77 71 64 60 57 56 57 53 50 49 49 48 48 48
168 166 172 176 175 174 176 167 161 155 155 159 157 164 161 160 172 153 153 162 150 166 159 144 140 137 143 141 132 133 138 129 131 147 188 127 123 140 96 86 119 145 129 106 98 63 61 64 63 58 52 48 43 41 55 117 113 189 204 254 103 117 104 82 104 99 97 93 102 88 78 76 74 69 59 52 50 46 42 47 41 38 37 36 36
173 171 173 177 174 172 175 170 160 157 157 165 167 170 159 162 175 173 163 162 159 162 162 146 140 138 131 124 141 140 142 145 155 159 141 162 159 154 83 85 96 86 111 126 114 103 83 82 74 64 49 55 55 51 45 46 149 260 238 172 179 141 116 164 110 90 125 124 106 103 92 77 74 57 52 43 35 33 32 31 30 30 29 34 34
179 172 173 178 175 172 174 168 160 157 158 166 177 170 166 163 171 181 170 159 162 162 162 149 141 138 129 126 141 140 145 141 146 138 153 175 150 148 138 130 143 90 103 121 132 128 126 110 97 75 52 53 65 58 48 37 23 348 196 195 186 186 177 141 106 126 151 137 124 115 92 82 64 58 50 42 34 28 28 25 29 27 31 35 44
184 172 171 176 175 175 174 171 162 160 159 167 174 174 170 172 170 180 177 174 164 169 160 147 140 132 129 141 126 116 123 114 127 153 183 179 169 173 137 153 141 113 116 110 129 145 155 169 125 101 71 52 49 45 44 36 11 12 267 198 188 184 170 189 165 177 169 135 119 117 102 67 59 40 41 40 27 34 32 33 27 27 29 26 33
184 175 171 175 177 180 174 169 170 162 165 169 180 178 179 176 181 175 174 171 162 159 142 132 111 113 121 97 104 117 94 126 159 197 182 165 158 141 149 154 133 133 131 133 128 131 145 157 141 138 122 98 74 33 34 26 14 359 344 213 187 189 181 178 188 139 174 152 155 166 76 43 59 27 2 355 40 43 14 27 37 37 34 34 37
175 167 182 175 181 176 168 176 173 173 177 186 183 185 184 180 172 176 169 165 172 158 154 133 126 87 77 111 118 153 159 179 210 200 172 168 159 160 182 150 155 148 169 145 146 153 162 158 155 147 145 140 159 134 100 52 16 353 341 306 200 184 183 171 171 156 240 222 228 226 197 251 250 7 336 72 43 47 24 47 48 43 41 43 40
179 178 181 180 183 183 177 179 178 186 189 178 180 182 172 174 160 169 200 171 176 167 163 124 167 165 149 169 321 261 206 205 227 216 198 179 174 179 183 170 167 168 177 147 163 165 168 176 159 147 160 165 171 193 75 64 25 10 350 351 306 201 189 178 158 183 170 232 226 213 225 256 224 236 173 213 83 11 45 42 52 38 42 40 41
182 184 186 189 186 183 188 179 184 179 177 187 185 185 184 180 175 174 181 196 161 180 171 180 160 138 111 94 214 170 292 277 254 224 200 196 184 185 179 173 173 172 168 159 170 177 183 173 160 156 164 165 171 142 114 98 78 38 24 14 358 221 188 175 170 173 160 168 220 221 228 225 253 204 258 14 350 23 34 47 40 47 47 41 37
184 191 196 199 197 197 190 184 189 183 183 187 189 194 187 186 184 186 170 171 181 196 197 187 144 139 172 199 191 142 261 245 210 232 199 197 190 195 179 179 171 172 163 173 180 178 183 168 169 167 175 170 163 141 129 129 101 67 43 27 20 10 182 170 167 160 155 161 175 230 201 217 225 244 284 353 340 20 19 39 46 45 44 38 38
184 199 198 208 213 209 201 195 190 192 187 191 193 198 195 194 189 182 184 184 191 182 206 202 198 193 148 121 99 227 217 212 146 264 192 203 215 196 197 176 177 179 179 186 180 178 173 168 173 174 176 180 174 154 146 149 139 119 72 56 47 38 77 166 158 157 160 162 178 199 203 197 222 230 267 302 337 344 29 46 49 41 39 38 33
186 197 209 213 220 220 217 200 199 197 198 202 201 195 199 197 197 191 195 203 186 170 192 224 212 217 223 210 149 174 177 186 123 236 155 228 212 218 202 199 181 186 195 191 183 179 171 171 176 182 182 184 182 154 158 168 156 147 142 119 97 83 70 110 147 152 162 171 174 211 199 193 198 214 252 283 326 297 300 63 54 45 40 44 33
211 196 207 216 222 228 227 220 206 201 200 202 206 206 205 205 196 199 199 196 170 186 193 198 217 252 237 239 168 153 159 132 202 96 224 285 231 213 230 213 193 192 203 206 189 174 177 168 181 181 182 187 184 163 168 176 168 157 152 155 140 126 116 96 111 157 169 168 186 216 205 203 203 202 203 248 258 276 181 144 75 61 44 34 38
211 221 209 209 217 228 229 230 225 211 200 208 211 212 210 213 205 206 202 200 197 195 194 190 191 212 216 229 233 167 228 171 156 169 159 164 235 254 242 212 206 211 204 206 198 184 174 179 179 181 184 191 186 177 167 153 150 149 149 154 152 147 143 140 129 127 144 175 184 198 202 202 198 192 195 206 229 241 206 188 176 71 97 48 39
222 233 235 220 212 220 228 233 232 230 211 214 216 214 211 202 205 207 209 211 209 203 188 199 200 206 194 225 195 205 223 237 174 131 135 134 224 193 216 220 224 232 219 208 203 189 182 180 178 179 184 190 190 184 166 160 154 154 160 161 161 160 160 161 160 156 152 168 178 206 210 202 197 202 209 213 226 225 222 202 218 238 252 344 21
227 242 252 247 228 222 228 232 233 233 228 221 221 223 223 216 208 208 209 214 213 210 208 198 203 206 205 194 195 165 204 264 244 206 216 173 170 196 194 178 200 230 204 212 200 193 182 176 176 182 185 188 191 188 173 170 164 160 167 164 164 166 163 163 170 173 173 175 179 199 222 212 206 210 229 231 225 227 210 211 240 237 239 254 244
191 219 234 245 244 229 225 236 237 234 231 234 229 224 228 225 218 213 211 212 214 217 222 209 195 204 206 199 205 194 195 194 200 200 187 183 121 188 186 197 202 210 224 208 194 193 182 177 180 185 183 188 190 187 181 179 170 166 167 167 166 165 165 170 173 177 179 181 186 185 195 197 204 210 229 229 225 225 213 211 220 243 233 235 266
176 188 219 233 227 239 239 240 244 242 239 232 234 230 229 233 226 217 220 218 218 219 221 222 206 202 208 205 210 211 219 214 204 197 189 201 187 180 183 180 257 231 221 192 201 188 191 187 187 181 183 185 189 186 184 181 178 169 168 171 171 174 178 177 177 179 182 183 183 189 192 197 196 205 221 224 223 219 215 208 209 223 231 243 252
318 223 237 214 209 222 239 240 245 244 243 241 242 238 233 233 232 226 220 218 219 220 222 223 214 206 207 211 208 209 216 213 199 202 209 193 187 166 209 176 186 194 218 163 200 204 192 196 181 186 182 185 185 189 187 182 176 175 165 176 177 181 182 181 178 181 184 184 186 191 195 199 199 202 216 214 221 225 217 210 213 217 231 240 264
342 335 278 232 205 211 214 226 228 234 237 238 239 238 230 230 234 234 227 226 222 227 231 231 230 226 208 210 213 210 214 204 208 194 195 182 203 195 179 216 171 183 146 180 198 147 247 210 188 181 187 185 189 187 191 179 177 177 170 171 183 184 185 180 180 182 184 184 188 191 197 202 202 208 223 228 223 221 230 228 218 218 223 230 239
341 327 340 329 256 224 223 231 245 245 243 244 242 239 234 233 233 237 236 225 229 227 233 233 238 238 234 221 217 217 213 205 205 213 192 199 195 189 174 173 178 114 188 222 225 213 200 200 181 187 191 189 190 191 189 183 182 176 172 172 180 185 185 186 188 187 186 186 189 192 196 201 208 216 222 233 235 219 223 231 235 232 229 232 250
330 337 329 339 323 279 260 249 256 259 255 249 247 241 238 233 237 234 239 226 227 230 233 233 241 242 245 248 241 239 222 213 212 213 210 203 198 189 185 183 179 214 211 211 216 240 197 176 217 203 189 193 194 188 192 177 183 180 174 175 177 185 190 192 193 191 187 188 189 192 196 199 206 218 226 232 239 238 235 235 236 241 251 269 270
331 331 327 328 329 325 304 286 274 263 265 260 253 245 238 234 235 239 242 238 228 226 225 227 236 237 244 243 243 246 241 237 231 221 214 209 205 198 190 191 190 201 186 208 220 211 230 191 184 213 192 189 188 190 189 190 185 181 183 179 180 180 192 194 196 194 191 191 195 195 196 199 205 212 223 231 231 234 238 239 237 247 244 240 241
334 328 329 329 327 324 321 308 294 289 274 269 265 258 249 240 231 232 235 239 245 247 234 226 230 225 237 242 242 248 246 244 241 233 224 218 212 206 203 204 188 207 191 196 229 196 210 209 196 184 191 191 188 190 194 189 185 183 187 184 179 183 190 195 197 197 196 197 197 198 198 199 202 209 220 228 228 230 229 230 232 235 236 236 240
338 334 332 330 326 318 317 306 298 287 282 274 268 266 256 252 250 245 243 229 233 241 244 234 237 225 233 237 237 242 233 243 247 246 246 236 229 218 220 199 204 212 190 191 228 233 179 194 210 193 181 190 184 184 189 179 183 184 188 190 186 178 186 194 196 199 198 199 198 200 201 201 202 207 214 221 225 225 229 231 234 239 242 244 245
339 341 336 332 324 322 319 314 303 291 276 268 266 262 263 253 248 247 246 237 238 238 242 234 233 232 240 243 241 239 233 233 242 237 240 242 233 234 231 224 218 206 186 189 216 233 201 196 193 190 180 178 178 179 190 169 182 184 189 194 192 179 183 184 193 195 198 199 198 200 203 203 203 207 212 217 221 223 225 229 233 239 241 244 246
347 343 339 332 329 326 323 319 313 303 290 280 270 260 257 259 256 245 246 239 239 244 236 244 235 232 238 242 245 242 233 235 240 238 236 234 234 236 234 231 234 218 190 203 218 231 286 173 167 178 181 161 179 186 180 177 174 187 189 195 192 188 175 176 181 193 198 203 202 201 202 204 205 208 211 216 220 222 223 225 230 235 238 241 246
345 341 340 337 333 326 321 315 317 313 309 297 281 269 258 258 257 252 252 245 245 244 236 243 237 235 232 241 244 242 231 236 239 238 235 235 228 231 233 223 232 230 208 202 223 202 213 173 130 128 167 180 180 187 183 179 186 177 188 190 193 184 177 173 181 195 202 203 203 200 202 203 208 209 213 216 218 220 223 224 226 226 230 236 242
335 336 334 336 335 337 331 319 308 304 298 298 294 282 268 254 253 253 247 245 244 244 242 241 239 236 239 236 239 232 235 242 240 237 232 233 227 228 232 221 230 231 219 214 210 221 202 210 180 167 178 184 188 188 193 192 180 178 180 190 188 186 183 181 184 184 200 199 198 199 200 203 207 210 214 217 219 221 223 225 225 224 226 232 238
334 327 331 328 330 331 332 328 326 319 312 305 302 295 282 271 263 257 253 247 243 243 242 242 239 236 236 242 240 229 229 239 242 235 232 229 231 232 236 229 230 233 221 220 223 226 198 192 203 185 184 177 204 186 186 164 170 183 191 181 167 184 188 188 185 185 194 197 196 196 198 201 205 208 213 217 221 222 223 225 226 225 227 230 236
328 322 323 327 319 315 313 311 312 313 308 302 299 294 287 281 275 269 262 254 248 244 241 241 239 237 239 239 240 228 232 242 242 232 229 230 232 233 235 232 232 233 227 221 229 225 202 207 193 205 186 194 185 174 175 168 173 181 183 191 191 185 187 195 190 191 192 200 197 196 197 200 203 206 210 216 221 222 223 225 225 225 226 231 237
326 325 321 322 315 309 304 295 288 287 289 292 288 281 275 272 273 270 269 267 264 258 251 244 240 237 242 242 239 234 238 241 245 235 227 228 229 231 235 233 228 224 227 231 226 226 225 221 179 176 196 184 173 190 187 179 171 175 186 193 182 189 182 197 206 197 191 190 189 197 199 200 202 204 209 215 219 222 224 225 226 226 228 232 237
309 307 312 315 312 309 304 302 295 288 286 282 282 284 287 285 276 271 268 269 267 268 263 258 250 244 241 242 239 237 242 244 246 239 233 234 229 232 230 229 224 222 225 227 222 225 228 223 200 193 185 200 187 183 191 188 187 184 177 171 195 198 199 198 198 201 192 196 206 201 195 189 192 197 209 213 219 222 224 225 225 226 230 234 239
302 295 292 296 298 304 301 301 296 296 294 292 287 283 281 282 285 286 281 274 274 270 268 262 259 255 251 247 244 242 242 245 244 243 232 240 236 240 233 223 217 220 226 225 220 221 226 229 209 196 195 186 200 211 148 169 181 200 196 181 187 192 199 199 201 189 192 185 191 196 202 200 205 207 209 215 218 219 221 223 223 225 229 236 240
295 288 286 288 292 292 294 294 297 298 297 289 285 284 284 282 278 278 280 281 279 280 277 272 263 259 257 252 250 247 245 246 245 243 238 234 237 244 237 216 220 221 224 223 221 220 224 223 226 191 187 196 200 177 178 190 194 196 180 185 205 194 182 190 208 198 185 181 184 184 200 195 193 198 192 199 209 214 218 215 216 226 233 238 239
296 293 289 284 283 289 292 290 289 291 286 284 284 282 278 274 273 272 273 273 273 274 275 276 273 265 259 258 252 249 250 250 248 247 248 246 243 240 237 215 221 224 222 223 222 221 222 222 224 204 196 209 201 198 194 200 194 164 178 191 193 181 167 205 215 209 185 175 178 192 205 192 186 185 184 195 192 193 184 198 199 200 223 233 232
292 291 288 290 291 285 283 287 290 286 280 278 279 283 286 284 281 273 269 271 268 267 267 266 269 266 262 258 259 257 254 254 252 249 248 247 248 248 246 237 226 219 220 224 225 221 220 225 226 220 213 215 209 202 203 189 187 190 189 186 188 174 186 183 204 192 191 180 185 193 204 191 178 190 193 195 189 186 185 192 200 218 224 228 227
287 283 282 279 278 279 282 285 283 278 275 270 280 288 286 282 278 273 268 268 268 264 262 262 261 263 262 259 254 251 249 249 248 244 243 245 247 248 247 244 241 235 226 220 223 224 221 226 226 225 224 225 212 193 198 187 191 192 193 192 193 190 190 199 204 196 191 174 186 193 205 175 181 189 195 199 189 189 184 182 199 212 219 217 213
296 294 288 284 276 272 270 274 277 275 274 269 276 282 284 283 281 278 271 266 264 264 262 261 260 259 259 258 260 252 248 246 247 247 248 247 243 242 243 244 243 241 240 235 229 225 221 227 228 229 225 227 220 207 200 189 175 189 188 195 200 203 202 205 207 190 150 178 176 193 196 186 177 189 197 195 182 180 179 192 202 209 211 210 208
288 288 288 286 285 281 274 270 270 272 271 269 274 275 276 276 277 278 269 266 262 260 262 259 260 260 255 256 256 257 253 248 241 242 243 242 242 239 240 240 241 243 242 241 240 236 229 228 228 234 231 221 224 207 186 172 184 195 193 201 197 198 202 213 209 196 169 173 181 176 189 193 181 177 197 187 169 176 176 191 204 209 211 211 214
280 282 285 285 280 279 280 278 277 275 272 267 270 271 269 269 270 274 267 262 260 259 259 258 255 254 256 254 253 255 254 248 244 242 241 240 237 235 235 236 236 237 237 236 237 237 235 233 235 240 239 228 228 214 175 188 196 197 195 196 193 197 200 163 55 109 143 183 179 163 204 178 173 185 197 174 172 176 176 196 206 209 211 213 215
276 278 277 275 278 277 276 275 274 273 273 275 275 272 272 272 271 266 261 258 259 257 256 257 255 252 253 250 253 254 252 248 243 243 243 242 238 237 235 235 237 236 237 233 234 233 233 235 238 241 242 235 226 217 183 190 194 191 189 134 97 148 151 177 195 167 175 189 180 182 163 178 186 186 180 159 161 173 181 180 204 206 208 211 216
285 283 281 279 279 277 275 273 270 272 275 275 275 274 273 273 271 263 258 257 256 257 257 255 253 251 249 247 246 250 252 250 242 236 237 237 239 240 240 240 238 235 239 236 227 232 237 239 242 244 243 234 232 211 191 187 184 175 165 178 199 183 180 195 201 173 203 176 192 194 162 167 185 174 156 172 172 172 178 182 186 206 208 213 216
284 282 283 283 278 274 272 271 269 273 275 277 279 279 277 275 271 265 258 256 254 256 259 255 251 248 244 243 242 242 245 247 243 238 236 233 235 237 240 241 242 241 243 238 223 226 232 237 241 244 246 242 231 223 212 197 187 171 180 200 195 169 193 201 200 192 175 186 200 170 153 192 154 159 143 119 107 174 174 172 176 192 210 218 217
279 281 278 276 275 271 268 268 271 271 272 276 278 279 279 277 275 269 266 262 263 259 258 259 254 247 246 244 242 240 238 242 240 236 234 232 233 234 237 237 240 242 242 235 211 212 215 218 231 237 243 243 239 230 225 215 200 193 197 201 174 181 198 206 190 140 176 223 199 169 170 178 155 180 150 134 182 253 173 193 183 185 200 204 206